, FL

(GMT )
Crestview

Weather History for KEGI - December, 2011

Change the Weather History Date:

Tuesday, December 13, 2011

  Actual Average Record
Temperature  
Mean Temperature 60 °F -  
Max Temperature 72 °F - - ()
Min Temperature 48 °F - - ()
Degree Days  
Heating Degree Days 5    
Growing Degree Days 10 (Base 50)    
Moisture  
Dew Point 49 °F    
Average Humidity 84    
Maximum Humidity 95    
Minimum Humidity 53    
Precipitation  
Precipitation 0.00 in - - ()
Sea Level Pressure  
Sea Level Pressure 30.37 in    
Wind  
Wind Speed 6 mph (NNE)    
Max Wind Speed 9 mph    
Max Gust Speed -    
Visibility 9 miles    
Events      
Averages and records for this station are not official NWS values.
T = Trace of Precipitation, MM = Missing Value Source: NWS Daily Summary

Daily Weather History Graph

Daily Weather History Graph

Search for Another Location

Airport or City:

Trip Planner

Search our weather history database for the weather conditions in past years. The results will help you decide how hot, cold, wet, or windy it might be!

Date:

Astronomy

Dec. 13, 2011 Rise Set
Actual Time 6:34 AM CST 4:45 PM CST
Civil Twilight 6:07 AM CST 5:12 PM CST
Nautical Twilight 5:37 AM CST 5:42 PM CST
Astronomical Twilight 5:08 AM CST 6:11 PM CST
Moon 7:52 PM CST (12/13) 8:50 AM CST (12/13)
Length of Visible Light 11h 04m
Length of Day
10h 11m
Waning Gibbous, 90% of the Moon is Illuminated
Dec 13
Waning Gibbous
Dec 17
Last Quarter
Dec 24
New
Jan 1
First Quarter
Jan 9
Full

Hourly Weather History & Observations

Time (CST) Temp. Dew Point Humidity Pressure Visibility Wind Dir Wind Speed Gust Speed Precip Events Conditions
12:27 AM 51.8 °F 48.2 °F 88% 30.35 in 10.0 mi NE 9.2 mph - N/A   Overcast
12:41 AM 51.8 °F 48.2 °F 88% 30.35 in 10.0 mi NE 8.1 mph - N/A   Overcast
12:55 AM 51.1 °F 48.7 °F 92% 30.36 in 10.0 mi NNE 6.9 mph - N/A   Overcast
12:59 AM 51.8 °F 48.2 °F 88% 30.36 in 10.0 mi NE 8.1 mph - N/A   Overcast
1:35 AM 50.0 °F 48.2 °F 94% 30.36 in 10.0 mi NE 9.2 mph - N/A   Overcast
1:55 AM 50.0 °F 48.4 °F 94% 30.37 in 7.0 mi NNE 6.9 mph - N/A   Overcast
2:29 AM 50.0 °F 48.2 °F 94% 30.37 in 2.5 mi NNE 9.2 mph - N/A   Overcast
2:38 AM 50.0 °F 48.2 °F 94% 30.37 in 3.0 mi NE 8.1 mph - N/A   Overcast
2:55 AM 49.1 °F 47.7 °F 95% 30.37 in 4.0 mi NE 9.2 mph - N/A   Overcast
3:55 AM 48.6 °F 47.3 °F 95% 30.37 in 8.0 mi Variable 6.9 mph - N/A   Overcast
4:03 AM 48.2 °F 46.4 °F 93% 30.37 in 10.0 mi NE 6.9 mph - N/A   Overcast
4:09 AM 48.2 °F 46.4 °F 93% 30.37 in 10.0 mi NNE 5.8 mph - N/A   Overcast
4:25 AM 48.2 °F 46.4 °F 93% 30.38 in 10.0 mi North 6.9 mph - N/A   Overcast
4:44 AM 48.2 °F 46.4 °F 93% 30.38 in 10.0 mi NNE 4.6 mph - N/A   Overcast
4:55 AM 48.9 °F 46.8 °F 92% 30.38 in 10.0 mi North 5.8 mph - N/A   Overcast
5:55 AM 48.6 °F 46.0 °F 91% 30.39 in 10.0 mi North 5.8 mph - N/A   Overcast
6:02 AM 48.2 °F 46.4 °F 93% 30.39 in 10.0 mi NNE 5.8 mph - N/A   Overcast
6:41 AM 48.2 °F 46.4 °F 93% 30.39 in 10.0 mi NNE 4.6 mph - N/A   Overcast
6:55 AM 48.2 °F 45.9 °F 92% 30.39 in 10.0 mi NE 3.5 mph - N/A   Mostly Cloudy
7:00 AM 48.2 °F 46.4 °F 93% 30.39 in 10.0 mi NNE 4.6 mph - N/A   Scattered Clouds
7:55 AM 50.0 °F 46.0 °F 86% 30.40 in 10.0 mi NE 5.8 mph - N/A   Partly Cloudy
8:55 AM 54.9 °F 47.1 °F 75% 30.42 in 10.0 mi NNE 4.6 mph - N/A   Partly Cloudy
9:55 AM 59.9 °F 48.9 °F 67% 30.42 in 10.0 mi North 5.8 mph - N/A   Partly Cloudy
10:55 AM 64.6 °F 50.5 °F 60% 30.40 in 10.0 mi North 6.9 mph - N/A   Partly Cloudy
11:55 AM 68.7 °F 52.0 °F 55% 30.36 in 10.0 mi East 5.8 mph - N/A   Partly Cloudy
12:55 PM 70.9 °F 53.2 °F 54% 30.34 in 10.0 mi NNE 5.8 mph - N/A   Partly Cloudy
1:55 PM 72.9 °F 54.7 °F 53% 30.32 in 10.0 mi NNE 6.9 mph - N/A   Partly Cloudy
2:55 PM 72.7 °F 54.9 °F 53% 30.32 in 10.0 mi ENE 5.8 mph - N/A   Partly Cloudy
3:55 PM 71.1 °F 54.9 °F 56% 30.32 in 10.0 mi NE 4.6 mph - N/A   Partly Cloudy
4:55 PM 66.4 °F 55.0 °F 67% 30.33 in 10.0 mi Calm Calm - N/A   Scattered Clouds
5:55 PM 62.1 °F 54.0 °F 75% 30.34 in 10.0 mi Calm Calm - N/A   Partly Cloudy
6:55 PM 56.3 °F 53.2 °F 89% 30.35 in 10.0 mi Calm Calm - N/A   Clear
7:55 PM 53.1 °F 51.1 °F 93% 30.35 in 10.0 mi Calm Calm - N/A   Clear
8:55 PM 50.7 °F 48.7 °F 93% 30.35 in 10.0 mi Calm Calm - N/A   Clear
9:55 PM 50.2 °F 48.6 °F 94% 30.36 in 10.0 mi Calm Calm - N/A   Clear
10:55 PM 48.7 °F 47.1 °F 94% 30.35 in 10.0 mi Calm Calm - N/A   Partly Cloudy
11:55 PM 52.5 °F 49.1 °F 88% 30.34 in 10.0 mi Calm Calm - N/A   Partly Cloudy